User: anonymous   Login
Location: Mladá Boleslav
(50.4134°N, 14.9084°E)
Time: 00:54:52
(UTC+02:00)
Language:

QB50P2 - Orbit

View from above orbital plane
View from above orbital plane
View from above satellite
View from above satellite

Ground track
Ground track

The orbit data is extracted from the following two-line orbital elements,

1 40032U 14033Y   24147.81541095  .00007411  00000-0  62931-3 0  9998
2 40032  98.0066  99.7083 0008184 212.6638 147.4078 14.98176157539990
Epoch (UTC): 26 May 2024 19:34:11
Eccentricity: 0.0008184
inclination: 98.0066°
perigee height: 567 km
apogee height: 578 km
right ascension of ascending node: 99.7083°
argument of perigee: 212.6638°
revolutions per day: 14.98176157
mean anomaly at epoch: 147.4078°
orbit number at epoch: 53999

The dashed part of the orbit path shows where the satellite is in the earth's shadow,  

DLR